Location: G�nzburg
(48.4565°N, 10.3217°E)
Time: 11:12:02
(UTC+02:00)

ISS - Visible Passes

Search period start: 26 April 2018 00:00
Search period end: 06 May 2018 00:00
Orbit: 403 x 406 km, 51.6° (Epoch: 26 April)

Date Brightness Start Highest point End Pass type
(mag) Time Alt. Az. Time Alt. Az. Time Alt. Az.
03 May -1.5 05:11:32 10° S 05:13:48 17° SE 05:16:03 10° E visible
04 May -1.1 04:21:12 10° SE 04:21:42 10° SE 04:22:13 10° SE visible
05 May -2.6 05:02:19 10° SSW 05:05:18 33° SE 05:08:17 10° E visible
